Regional Weather Roundup
Issued by NWS

Home | Current Version | Previous Version | Graphics & Text | Print | Product List | Glossary On
Versions: 1 2 3 4 5 6 7 8 9 10 11 12 13 14 15 16 17 18 19 20 21 22 23 24 25 26 27 28 29 30 31 32 33 34 35 36 37 38 39 40 41 42 43 44 45 46 47 48 49 50
000
ASUS43 KBIS 190202
RWRND

NORTH DAKOTA REGIONAL WEATHER ROUNDUP
NATIONAL WEATHER SERVICE BISMARCK ND
900 PM CDT MON SEP 18 2017

NOTE: "FAIR" INDICATES FEW OR NO CLOUDS BELOW 12,000 FEET WITH NO
SIGNIFICANT WEATHER AND/OR OBSTRUCTIONS TO VISIBILITY.


NDZ001>003-009>011-017-190300-
NORTHWEST NORTH DAKOTA

CITY           SKY/WX    TMP DP  RH WIND       PRES   REMARKS
WILLISTON      CLOUDY    66  45  46 SE13      29.67R
MINOT          CLOUDY    57  48  72 E8        29.75S
MINOT AFB      CLEAR     56  49  78 SE10      29.74R
$$

NDZ018>021-031>035-040>046-190300-
SOUTHWEST NORTH DAKOTA

CITY           SKY/WX    TMP DP  RH WIND       PRES   REMARKS
BISMARCK       CLEAR     55  50  83 E6        29.78R
DICKINSON      CLEAR     58  44  60 SE10      29.71R
GARRISON         N/A     57  50  77 E6        29.76R
HETTINGER ARPT CLEAR     62  40  44 E10       29.74F
$$

NDZ004>008-012>016-024-026-027-054-190300-
NORTHEAST NORTH DAKOTA

CITY           SKY/WX    TMP DP  RH WIND       PRES   REMARKS
GRAND FORKS    PTCLDY    59  57  93 SE12      29.83R
GRND FRKS AFB  CLEAR     59  55  88 SE12      29.84S
DEVILS LAKE    PTCLDY    57  52  83 E8        29.81S
$$

NDZ022-023-025-028>030-036>039-047>053-190300-
SOUTHEAST NORTH DAKOTA

CITY           SKY/WX    TMP DP  RH WIND       PRES   REMARKS
FARGO          CLOUDY    63  58  83 SE13G22   29.83S
JAMESTOWN      CLOUDY    54  50  86 CALM      29.79S
$$





USA.gov is the U.S. government's official web portal to all federal, state and local government web resources and services.